Location: Cadenet
(43.7345°N, 5.3750°E)
Time: 00:58:21
(UTC+00:00)

Cosmos 2084 - Pass Details

Date: 18 February 2020
Orbit: 568 x 615 km, 62.8° (Epoch: 04 April)

Event Time Altitude Azimuth Distance (km) Brightness Sun altitude
Rises 05:25:41 0° 211° (SSW) 2,866 6.7 -12.9°
Reaches altitude 10° 05:27:57 10° 209° (SSW) 1,967 5.9 -12.5°
Maximum altitude 05:32:23 73° 126° (SE) 645 3.8 -11.7°
Drops below altitude 10° 05:36:52 10° 41° (NE) 1,976 6.6 -10.9°
Sets 05:39:09 0° 40° (NE) 2,881 7.5 -10.5°
